Tracking 19908 objects as of 19-Oct-2019
HD Live streaming from Space Station
objects crossing your sky now

COSMOS 1375 DEB

Track COSMOS 1375 DEB now!
10-day predictions


NORAD ID: 18415
Int'l Code: 1982-055BE
Perigee: 948.3 km
Apogee: 1,063.3 km
Inclination: 65.8 °
Period: 105.1 minutes
Semi major axis: 7376 km
RCS: 0.0876 m2 (small)
Launch date: June 6, 1982
Source: Commonwealth of Independent States (former USSR) (CIS)
Launch site: PLESETSK MISSILE AND SPACE COMPLEX (PKMTR)

Note: This is SATELLITE DEBRIS
aabbcc
Your satellite tracking list
Your tracking list is empty




NASA's NSSDC Master Catalog

Two Line Element Set (TLE):
1 18415U 82055BE  19291.58000758 +.00000133 +00000-0 +23602-3 0  9997
2 18415 065.8281 081.1065 0077942 218.6221 259.2266 13.70254384693381
Source of the keplerian elements: AFSPC